RH
92 65 48 74 57 39 29 26 30 32 23 22 33 44 44 37 21 20 18 35 16 16 13 13 21 38 32 30 30 34 63 52 50 49 48 32 26 30 30 34 36 43 38 38 41
100 95 70 44 81 56 36 29 27 33 26 24 39 51 55 48 67 34 82 56 26 26 21 14 13 43 42 35 35 39 69 56 57 54 39 40 28 31 29 30 36 42 42 40 41
89 98 98 68 72 72 51 32 29 34 30 29 45 52 62 58 76 50 77 72 86 86 44 27 18 26 36 38 46 63 70 65 40 28 27 32 25 32 29 33 30 48 47 42 45
61 95 99 96 64 86 65 42 32 34 33 35 55 61 65 65 72 53 65 74 80 88 85 51 46 51 61 54 36 39 32 39 39 38 32 30 35 26 27 24 54 38 46 44 46
5 24 80 100 96 86 92 66 37 34 36 35 59 61 61 65 60 57 54 54 69 87 98 89 75 67 77 70 59 58 44 39 36 32 30 32 25 26 30 23 26 36 46 49 48
2 3 63 100 100 91 98 90 47 36 38 36 44 56 56 66 66 64 56 56 55 56 69 83 78 94 98 80 70 70 49 44 39 34 36 33 26 42 22 17 21 25 36 52 53
2 3 57 88 99 99 95 95 76 42 41 40 36 48 51 68 58 59 62 62 62 66 73 67 88 99 97 96 78 69 56 52 40 35 43 36 32 27 21 23 23 21 22 30 55
4 2 3 9 58 99 99 98 90 69 45 43 39 39 51 67 65 60 57 56 60 64 84 65 74 99 97 80 66 57 63 72 50 36 39 41 46 51 30 24 22 24 27 24 26
8 7 3 4 9 98 99 99 97 87 53 48 42 39 50 53 72 66 59 55 58 61 66 66 77 88 87 80 97 94 75 84 81 51 55 54 70 62 35 32 29 28 27 27 25
53 60 20 4 5 94 99 99 99 99 86 66 42 46 46 46 52 61 68 65 57 61 68 70 70 76 60 77 66 64 80 78 77 80 58 61 76 53 41 41 37 34 29 25 25
98 98 98 72 5 22 98 98 99 100 82 50 43 50 40 44 51 50 58 56 53 65 71 72 80 58 55 57 79 69 87 85 84 87 75 56 62 55 38 36 33 29 28 28 26
96 99 96 94 47 51 94 98 95 81 77 56 51 51 49 47 55 55 54 53 54 65 71 73 67 57 58 63 71 97 95 87 85 85 80 76 31 41 28 20 23 26 27 25 24
88 90 80 86 93 28 78 98 98 98 94 65 49 54 51 56 58 61 61 66 65 61 54 64 61 50 55 64 86 96 96 87 86 86 84 76 45 36 41 30 24 23 23 23 22
80 82 86 66 63 56 52 98 98 99 98 80 59 49 51 48 53 52 63 71 62 59 64 74 74 60 69 71 68 88 89 76 88 91 74 93 55 49 48 46 43 30 27 26 22
95 97 89 61 58 61 48 98 98 98 94 74 68 62 57 57 55 52 58 70 72 66 66 68 66 71 90 61 85 94 92 98 99 94 92 83 98 49 48 53 50 34 31 31 25
98 94 84 63 78 68 72 97 98 98 85 84 84 74 62 60 66 70 70 88 93 93 93 95 77 85 90 83 92 91 98 100 100 100 93 68 82 48 37 41 44 33 31 29 28
95 94 82 66 52 98 94 98 97 96 77 88 92 99 93 94 95 95 99 92 95 99 98 97 90 78 92 100 97 100 96 77 86 94 67 51 53 53 30 34 30 31 28 26 26
97 87 87 73 59 94 97 98 95 89 98 89 100 99 97 97 98 99 100 98 100 98 94 98 85 86 81 78 99 98 97 70 68 44 40 62 57 42 42 51 43 31 32 31 30
97 85 90 70 59 98 98 98 95 61 49 91 100 100 99 99 96 100 99 98 98 96 98 100 98 76 68 78 95 98 99 80 91 85 80 57 45 44 44 47 47 35 44 38 49
90 90 89 73 69 92 98 97 81 60 48 68 100 100 100 99 99 100 100 82 99 96 99 99 94 73 72 78 78 96 96 96 98 78 61 40 41 41 41 45 40 37 39 46 43
87 97 92 80 94 96 97 95 70 65 59 66 64 88 97 95 91 96 98 72 73 62 99 99 91 94 78 74 83 98 99 96 84 79 70 52 36 36 40 41 42 39 39 45 37
86 97 91 83 97 97 96 96 84 81 68 60 63 58 75 82 86 98 92 77 72 64 72 77 98 99 89 63 70 84 89 96 96 73 92 81 67 52 50 47 46 52 40 31 31
96 97 90 92 87 89 98 96 80 70 69 69 68 71 76 81 88 99 96 85 83 78 74 92 99 92 64 78 76 95 63 82 98 96 94 94 64 50 57 60 47 48 45 44 34
97 97 89 66 74 61 96 96 87 69 70 68 70 77 80 93 95 99 100 91 88 89 95 96 100 88 62 54 70 98 92 97 98 98 83 88 78 68 84 84 73 75 59 52 47
94 89 91 98 86 86 96 98 88 75 72 75 74 77 80 87 89 98 98 99 91 95 97 99 99 87 67 72 82 96 100 98 98 97 98 72 89 80 97 98 99 88 69 64 58
100 90 79 95 91 90 86 89 93 71 70 70 67 75 82 89 98 98 98 100 98 92 92 97 94 83 78 82 99 99 93 99 99 100 98 100 97 86 92 100 81 84 77 85 74
96 83 86 96 92 94 86 91 86 77 76 77 80 81 86 89 95 100 99 96 100 98 94 94 92 98 94 89 85 98 99 99 99 100 100 99 81 96 97 96 99 100 100 100 98
Wind_Speed
19 21 21 21 21 22 20 19 17 17 17 17 17 17 17 18 20 24 19 18 18 17 20 24 29 24 24 25 26 24 20 24 26 23 21 25 25 25 25 24 25 22 22 21 20
21 20 20 18 24 22 21 20 18 17 18 17 17 16 16 16 15 22 16 17 16 16 18 21 25 22 25 26 26 26 22 23 22 24 25 23 25 25 22 27 25 25 23 24 22
23 25 20 19 22 22 24 21 18 18 17 16 16 18 16 15 17 21 20 16 14 14 17 20 22 21 22 25 27 27 24 22 29 30 32 31 29 29 28 27 27 24 24 28 25
27 26 23 23 21 24 23 23 20 18 17 17 16 16 17 17 14 18 19 19 22 21 18 21 22 20 19 21 25 26 27 30 29 31 31 29 28 30 32 32 24 32 33 31 29
32 31 28 29 24 24 25 23 22 19 18 19 17 16 17 18 22 11 9 21 25 26 23 21 21 21 20 20 23 23 25 28 30 30 30 32 35 35 37 32 33 34 36 36 35
32 33 33 25 27 24 25 22 23 21 19 20 19 17 17 17 16 21 19 13 13 16 25 26 24 21 20 24 24 23 25 28 30 31 33 35 37 37 40 32 36 36 41 39 38
32 33 37 40 23 25 27 26 24 23 21 20 20 19 17 16 15 19 18 21 22 17 14 19 22 19 22 22 24 23 24 26 29 29 32 32 40 43 35 35 37 38 41 44 43
32 32 37 40 41 31 24 26 25 24 21 21 21 19 17 18 15 13 14 16 17 17 14 17 15 18 19 20 14 12 16 13 19 22 25 28 33 22 22 28 37 37 38 43 46
37 30 33 35 35 34 26 25 24 22 24 23 21 19 18 20 17 15 14 13 14 16 17 17 20 21 20 15 12 13 12 14 16 18 20 24 23 24 24 28 34 35 32 37 45
27 20 25 32 35 34 27 24 26 22 22 22 22 17 17 20 19 18 17 17 16 17 17 18 20 20 20 19 11 9 15 14 15 9 19 26 33 35 33 32 34 34 36 41 38
20 19 17 20 34 38 30 33 35 31 31 23 11 23 10 21 12 15 18 18 18 18 19 20 20 21 17 19 17 15 12 15 15 16 26 32 36 34 36 39 40 39 41 40 40
20 20 19 20 25 33 38 38 40 25 20 20 22 9 21 12 16 18 16 16 16 16 17 18 20 15 18 19 20 19 20 22 21 18 21 28 49 41 43 43 41 41 41 41 40
20 18 21 19 22 37 46 36 33 30 17 17 20 23 18 15 13 13 17 16 14 16 15 17 11 6 11 18 19 20 22 21 22 22 25 30 50 26 15 23 27 32 35 37 39
24 17 19 19 28 29 45 25 38 30 13 15 23 22 25 25 21 22 20 18 18 14 14 14 20 22 21 19 19 18 17 18 16 12 11 6 18 31 27 25 26 28 27 27 25
27 33 14 23 24 24 33 31 37 26 7 12 23 22 24 25 16 22 23 21 19 17 16 9 8 8 17 12 11 13 13 10 11 16 21 22 12 33 17 23 25 28 30 30 19
35 17 14 22 20 24 28 26 34 15 6 15 22 23 25 29 23 14 18 18 19 19 21 18 18 17 15 11 12 13 12 11 13 12 11 25 24 38 27 22 16 3 3 11 19
35 17 15 20 13 30 25 33 27 5 13 15 22 23 20 25 22 18 16 18 12 12 16 13 21 21 20 17 17 15 10 3 4 7 8 4 15 39 27 19 21 30 28 22 20
29 11 9 10 16 34 35 43 9 11 13 14 22 23 18 21 19 16 16 19 19 13 6 6 5 14 12 15 7 15 19 8 6 6 9 4 15 21 20 17 23 32 32 29 27
22 4 5 14 19 27 40 28 9 23 19 23 26 24 18 23 17 19 18 18 16 20 11 7 6 10 9 7 13 11 21 19 25 31 22 19 35 41 34 29 29 25 23 23 11
7 2 9 15 19 29 41 14 10 23 20 23 13 16 15 28 14 19 14 6 16 18 22 7 7 11 17 17 20 20 9 7 13 6 10 16 29 25 24 18 15 15 20 15 17
2 5 12 23 24 21 23 18 22 20 21 12 12 16 13 23 14 15 7 4 9 8 16 16 14 5 13 15 16 20 28 22 16 17 6 14 13 10 16 13 16 17 18 17 19
7 2 15 25 28 26 14 23 20 22 18 14 11 12 14 13 15 10 9 10 9 11 13 16 9 13 19 18 19 19 23 24 20 17 24 33 44 20 20 20 19 17 21 28 24
3 15 26 25 20 26 14 22 20 19 17 14 12 10 11 13 5 9 6 11 13 10 6 14 10 6 6 3 6 18 25 34 41 39 37 15 27 11 8 14 13 16 18 21 22
10 16 25 19 21 19 16 21 22 16 14 13 12 9 9 8 6 4 6 6 10 11 17 9 12 14 15 22 21 28 41 41 37 36 43 50 56 42 29 27 29 30 28 28 19
12 16 13 13 17 23 22 22 20 16 13 13 10 8 6 5 6 12 13 11 6 9 13 16 18 21 29 34 39 39 42 45 43 50 39 60 35 41 29 26 24 23 21 20 16
15 12 9 7 14 27 20 23 19 17 13 11 7 6 9 8 10 5 8 11 11 15 14 16 18 21 35 25 20 36 32 22 26 23 31 41 46 24 19 13 16 18 16 15 15
12 10 6 8 17 25 22 22 19 14 9 11 11 13 16 10 7 11 13 10 9 12 16 19 20 14 15 23 36 9 23 26 21 16 16 15 8 9 14 15 16 11 15 19 14
Wind_Direction
282 278 280 272 263 266 264 265 266 262 257 252 246 243 242 240 242 242 227 230 229 226 234 238 237 226 229 230 231 231 225 231 232 240 239 244 244 241 232 230 231 229 225 225 225
276 280 272 265 268 263 260 260 257 258 255 247 243 239 236 235 232 244 220 224 223 218 223 232 235 225 226 228 229 224 224 237 236 235 242 246 244 240 236 233 227 228 230 224 219
263 265 273 261 256 263 261 256 254 254 251 246 237 234 228 226 227 247 224 217 207 230 216 219 226 219 221 225 227 226 227 237 244 245 245 244 246 243 238 230 226 224 226 222 212
262 258 262 258 248 257 258 255 253 252 247 243 230 228 222 219 218 245 229 209 199 219 219 221 220 221 221 223 226 232 235 240 244 248 250 249 246 245 241 233 232 223 224 224 217
265 255 248 258 246 245 253 254 246 244 243 240 231 224 223 220 225 229 207 215 211 206 220 227 228 228 231 230 235 235 239 242 247 249 250 254 255 253 245 238 236 229 223 222 223
264 258 245 244 243 240 249 247 243 241 239 237 233 229 228 226 222 225 217 213 186 199 223 226 231 229 236 237 238 243 244 249 251 257 259 257 258 258 255 246 241 236 231 224 222
277 255 244 243 241 237 237 248 246 241 236 235 232 228 227 222 220 223 220 225 228 223 212 215 218 228 238 251 248 249 253 254 251 253 260 265 263 261 265 262 252 243 239 234 224
283 262 245 244 246 230 230 237 242 246 234 233 231 229 225 221 210 207 206 213 218 214 211 214 217 226 235 238 250 253 258 258 256 257 261 259 259 265 259 259 254 248 242 239 236
285 272 251 241 237 226 222 223 244 247 239 231 228 226 226 219 210 211 209 209 207 207 207 208 211 220 230 238 253 248 248 254 274 262 265 264 267 265 263 258 257 252 244 240 237
282 282 258 241 233 219 208 214 222 231 228 224 222 222 225 223 215 216 215 218 218 216 216 217 221 228 234 230 235 253 243 256 255 271 269 268 265 267 265 258 256 255 251 247 239
277 273 262 254 229 230 202 219 208 212 226 218 210 219 220 213 194 205 214 219 222 220 222 226 227 234 248 250 242 255 254 258 262 275 285 278 276 271 268 264 261 257 257 255 248
282 280 273 250 231 214 221 204 220 231 232 228 219 207 211 212 210 209 199 202 207 212 215 229 240 251 247 246 250 253 262 266 276 277 277 287 278 278 277 272 270 268 261 257 257
298 287 286 269 241 213 222 199 207 215 218 223 223 219 217 204 199 200 199 198 209 226 234 235 233 245 247 247 247 251 255 263 271 285 283 293 287 294 286 279 274 268 267 260 259
295 285 279 267 249 216 219 200 205 214 205 224 217 219 214 219 228 225 222 227 230 230 234 249 250 247 250 248 250 261 259 270 275 281 278 303 289 284 282 276 276 280 277 268 260
303 311 266 243 248 211 217 209 197 169 190 205 200 203 205 206 216 221 226 230 233 233 228 235 237 224 226 249 242 244 272 265 265 272 284 262 253 277 281 282 280 288 283 266 258
327 309 256 230 231 188 208 208 175 172 190 171 184 188 193 200 205 200 206 218 231 232 236 233 233 243 252 261 250 267 266 269 268 265 255 258 223 277 282 276 268 178 75 287 298
334 297 248 230 213 178 183 193 168 205 165 173 176 178 183 187 197 213 201 200 195 190 230 248 250 259 257 253 247 234 243 269 235 205 246 294 228 250 277 255 261 283 286 282 271
330 296 247 216 188 189 173 183 174 168 155 164 162 164 175 178 189 190 192 202 206 213 194 229 244 211 250 238 223 225 219 221 254 244 280 317 247 255 280 279 265 282 281 276 272
328 273 213 161 187 178 185 173 166 168 168 155 152 160 166 178 178 183 192 211 222 222 206 211 250 226 242 232 208 216 219 243 265 271 276 250 264 279 282 279 276 277 271 270 271
330 213 161 156 171 180 182 173 160 171 177 152 145 171 170 178 170 189 199 226 222 229 217 243 260 254 245 242 231 224 214 199 214 270 267 258 261 260 280 279 274 283 289 241 256
83 112 142 151 177 180 164 147 152 167 165 142 149 159 167 173 179 183 194 196 198 208 204 224 238 259 236 230 226 213 231 232 244 239 257 280 257 277 283 278 264 245 240 265 277
154 86 154 161 171 165 177 145 150 147 162 155 136 150 156 168 183 191 210 212 209 209 206 227 240 242 248 278 267 242 250 238 231 238 235 249 268 264 277 266 251 232 271 276 283
159 103 146 157 166 182 147 153 153 142 148 166 156 159 163 175 176 208 224 216 214 214 211 209 226 284 291 278 257 248 267 248 245 250 253 249 260 248 239 264 249 282 271 272 267
96 119 146 169 179 198 169 178 166 173 168 165 162 167 176 179 210 230 236 225 214 223 219 221 242 244 260 277 287 279 278 275 254 247 256 247 260 261 266 270 271 285 277 275 268
87 147 140 182 188 181 173 163 171 174 182 184 193 207 239 275 248 241 242 236 209 226 222 228 259 271 287 292 295 291 295 304 274 263 247 266 262 276 283 272 277 274 268 265 271
93 128 183 157 192 186 194 201 198 199 197 199 228 226 252 284 230 212 225 233 231 224 233 245 270 293 296 307 304 303 310 315 314 304 277 270 271 275 294 299 271 272 268 270 263
112 155 177 149 184 183 192 190 199 201 216 229 246 258 263 289 269 236 240 227 215 230 233 247 265 285 286 312 321 308 330 337 342 323 293 250 265 274 286 305 296 278 246 250 219